Regional Weather Roundup
Issued by NWS Charleston, WV

Home | Current Version | Previous Version | Text Only | Print | Product List | Glossary Off
Versions: 1 2 3 4 5 6 7 8 9 10 11 12 13 14 15 16 17 18 19 20 21 22 23 24 25 26 27 28 29 30 31 32 33 34 35 36 37 38 39 40 41 42 43 44 45 46 47 48 49 50

000
ASUS41 KRLX 191110
RWRRLX
West Virginia Regional Weather Roundup
National Weather Service Charleston WV
700 AM EDT FRI SEP 19 2014

Note: "fair" indicates few or no clouds below 12,000 feet with no
significant weather and/or obstructions to visibility.

WVZ003-191200-
Northern Panhandle of West Virginia

CITY           SKY/WX    TMP DP  RH WIND       PRES   REMARKS
WHEELING       CLEAR     49  47  93 NE5       30.21R
$$

WVZ009-191200-
Northwest West Virginia

CITY           SKY/WX    TMP DP  RH WIND       PRES   REMARKS
PARKERSBURG    CLEAR     46  43  89 CALM      30.20S
$$

WVZ006-191200-
Western West Virginia

CITY           SKY/WX    TMP DP  RH WIND       PRES   REMARKS
HUNTINGTON     CLEAR     50  48  93 NE6       30.15R
$$

WVZ015-191200-
West Central West Virginia

CITY           SKY/WX    TMP DP  RH WIND       PRES   REMARKS
CHARLESTON     FOG       50  50 100 CALM      30.15R VSB 1/4
$$

WVZ031-191200-
North Central West Virginia

CITY           SKY/WX    TMP DP  RH WIND       PRES   REMARKS
CLARKSBURG     CLEAR     48  47  96 NE5       30.18R
MORGANTOWN     PTCLDY    49  45  86 N5        30.21R FOG
$$

WVZ035-042-045-191200-
South Central West Virginia

CITY           SKY/WX    TMP DP  RH WIND       PRES   REMARKS
BECKLEY        CLEAR     53  50  89 CALM      30.17R
BLUEFIELD      CLOUDY    57  53  86 E3        30.18R
LEWISBURG      CLOUDY    58  52  81 N5        30.19R
$$

WVZ047-191200-
Northern Mountains of West Virginia

CITY           SKY/WX    TMP DP  RH WIND       PRES   REMARKS
ELKINS         FOG       48  48 100 CALM      30.22R VSB 1/2
$$

WVZ052-191200-
Eastern Panhandle of West Virginia

CITY           SKY/WX    TMP DP  RH WIND       PRES   REMARKS
MARTINSBURG    MOCLDY    54  48  80 N6        30.23R
PETERSBURG     CLOUDY    53  50  90 CALM      30.24R
$$


USA.gov is the U.S. government's official web portal to all federal, state and local government web resources and services.